Brisbane, Queensland

11:46 AM AEST on February 12, 2016 (GMT +1000)
Brisbane International

Weather History for YBBN - July, 2013

Change the Weather History Date:

Tuesday, July 9, 2013

  Actual Average Record
Temperature  
Mean Temperature 59 °F -  
Max Temperature 68 °F 70 °F 77 °F (2005)
Min Temperature 50 °F 49 °F 37 °F (2001)
Degree Days  
Heating Degree Days 6    
Growing Degree Days 9 (Base 50)    
Moisture  
Dew Point 48 °F    
Average Humidity 67    
Maximum Humidity 94    
Minimum Humidity 38    
Precipitation  
Precipitation 0.00 in 0.08 in - ()
Sea Level Pressure  
Sea Level Pressure 30.37 in    
Wind  
Wind Speed 9 mph ()    
Max Wind Speed 13 mph    
Max Gust Speed -    
Visibility 8.0 miles    
Events      
Averages and records for this station are not official NWS values.
T = Trace of Precipitation, MM = Missing Value Source: Averaged Metar Reports

Daily Weather History Graph

Daily Weather History Graph

Search for Another Location

Airport or City:

Trip Planner

Search our weather history database for the weather conditions in past years. The results will help you decide how hot, cold, wet, or windy it might be!

Date:

Astronomy

Jul. 09, 2013 Rise Set
Actual Time 6:37 AM AEST 5:07 PM AEST
Civil Twilight 6:12 AM AEST 5:33 PM AEST
Nautical Twilight 5:43 AM AEST 6:02 PM AEST
Astronomical Twilight 5:15 AM AEST 6:30 PM AEST
Moon 6:52 AM AEST (7/9) 6:02 PM AEST (7/9)
Length of Visible Light 11h 20m
Length of Day
10h 29m
New Moon, 1% of the Moon is Illuminated
Jul 9
New Moon
Jul 16
First Quarter
Jul 23
Full
Jul 30
Last Quarter
Aug 7
New

Hourly Weather History & Observations

Time (AEST) Temp. Dew Point Humidity Pressure Visibility Wind Dir Wind Speed Gust Speed Precip Events Conditions
12:00 AM 55 °F 49 °F 73% 30.39 in 19 mi SSW 5.8 mph - -   Partly Cloudy
12:00 AM 55.4 °F 48.2 °F 77% 30.39 in 6.2 mi SSW 5.8 mph - N/A   Partly Cloudy
12:30 AM 55.4 °F 48.2 °F 77% 30.36 in 6.2 mi SSW 5.8 mph - N/A   Partly Cloudy
1:00 AM 51 °F 49 °F 88% 30.38 in - SSW 8.1 mph - -  
1:00 AM 51.8 °F 48.2 °F 88% 30.36 in 6.2 mi SSW 8.1 mph - N/A   Partly Cloudy
1:30 AM 50.0 °F 48.2 °F 94% 30.36 in 6.2 mi SSW 8.1 mph - N/A   Partly Cloudy
2:00 AM 51.8 °F 48.2 °F 88% 30.36 in 6.2 mi SSW 8.1 mph - N/A   Scattered Clouds
2:30 AM 51.8 °F 48.2 °F 88% 30.33 in 6.2 mi SSW 6.9 mph - N/A   Scattered Clouds
3:00 AM 52 °F 48 °F 80% 30.35 in 19 mi SSW 8.1 mph - -   Partly Cloudy
3:00 AM 51.8 °F 48.2 °F 88% 30.33 in 6.2 mi SSW 8.1 mph - N/A   Scattered Clouds
3:30 AM 51.8 °F 46.4 °F 82% 30.33 in 6.2 mi SSW 10.4 mph - N/A   Scattered Clouds
4:00 AM 52 °F 47 °F 76% 30.35 in - SSW 8.1 mph - -  
4:00 AM 51.8 °F 46.4 °F 82% 30.33 in 6.2 mi SSW 8.1 mph - N/A   Partly Cloudy
4:30 AM 51.8 °F 46.4 °F 82% 30.33 in 6.2 mi SSW 9.2 mph - N/A   Partly Cloudy
5:00 AM 53.6 °F 46.4 °F 77% 30.33 in 6.2 mi SSW 11.5 mph - N/A   Partly Cloudy
5:30 AM 51.8 °F 46.4 °F 82% 30.36 in 6.2 mi SSW 12.7 mph - N/A   Partly Cloudy
6:00 AM 52 °F 46 °F 75% 30.37 in 19 mi SSW 10.4 mph - -   Partly Cloudy
6:00 AM 51.8 °F 46.4 °F 82% 30.36 in 6.2 mi SSW 10.4 mph - N/A   Partly Cloudy
6:30 AM 51.8 °F 46.4 °F 82% 30.36 in 6.2 mi SSW 10.4 mph - N/A   Partly Cloudy
7:00 AM 51 °F 47 °F 80% 30.39 in - SSW 11.5 mph - -  
7:00 AM 51.8 °F 46.4 °F 82% 30.39 in 6.2 mi SSW 11.5 mph - N/A   Partly Cloudy
7:30 AM 51.8 °F 46.4 °F 82% 30.39 in 6.2 mi SSW 10.4 mph - N/A   Partly Cloudy
8:00 AM 55.4 °F 46.4 °F 72% 30.39 in 6.2 mi SSW 11.5 mph - N/A   Partly Cloudy
8:30 AM 57.2 °F 48.2 °F 72% 30.39 in 6.2 mi SSW 10.4 mph - N/A   Partly Cloudy
9:00 AM 60 °F 48 °F 54% 30.42 in 22 mi SSW 9.2 mph - -   Partly Cloudy
9:00 AM 60.8 °F 48.2 °F 63% 30.42 in 6.2 mi SSW 9.2 mph - N/A   Partly Cloudy
9:30 AM 60.8 °F 48.2 °F 63% 30.42 in 6.2 mi South 8.1 mph - N/A   Scattered Clouds
10:00 AM 63 °F 47 °F 45% 30.42 in - South 12.7 mph - -  
10:00 AM 62.6 °F 46.4 °F 55% 30.42 in 6.2 mi South 12.7 mph - N/A   Partly Cloudy
10:30 AM 64.4 °F 48.2 °F 56% 30.39 in 6.2 mi South 12.7 mph - N/A   Partly Cloudy
11:00 AM 66.2 °F 48.2 °F 52% 30.36 in 6.2 mi SSE 10.4 mph - N/A   Mostly Cloudy
11:30 AM 66.2 °F 48.2 °F 52% 30.39 in 6.2 mi SSE 10.4 mph - N/A   Mostly Cloudy
12:00 PM 67 °F 48 °F 39% 30.38 in 19 mi SSE 12.7 mph - -   Partly Cloudy
12:00 PM 66.2 °F 48.2 °F 52% 30.36 in 6.2 mi SSE 12.7 mph - N/A   Mostly Cloudy
12:30 PM 68.0 °F 48.2 °F 49% 30.36 in 6.2 mi SE 12.7 mph - N/A   Partly Cloudy
1:00 PM 68 °F 48 °F 38% 30.35 in - SE 12.7 mph - -  
1:00 PM 68.0 °F 48.2 °F 49% 30.33 in 6.2 mi SE 12.7 mph - N/A   Mostly Cloudy
1:30 PM 66.2 °F 48.2 °F 52% 30.33 in 6.2 mi SE 12.7 mph - N/A   Mostly Cloudy
2:00 PM 66.2 °F 48.2 °F 52% 30.33 in 6.2 mi SE 12.7 mph - N/A   Mostly Cloudy
2:30 PM 66.2 °F 48.2 °F 52% 30.33 in 6.2 mi SE 10.4 mph - N/A   Mostly Cloudy
3:00 PM 65 °F 48 °F 44% 30.34 in 22 mi SE 11.5 mph - -   Partly Cloudy
3:00 PM 66.2 °F 48.2 °F 52% 30.33 in 6.2 mi SE 11.5 mph - N/A   Mostly Cloudy
3:30 PM 66.2 °F 48.2 °F 52% 30.33 in 6.2 mi SE 10.4 mph - N/A   Mostly Cloudy
4:00 PM 65 °F 48 °F 44% 30.34 in - SE 10.4 mph - -  
4:00 PM 64.4 °F 48.2 °F 56% 30.33 in 6.2 mi SE 10.4 mph - N/A   Mostly Cloudy
4:30 PM 64.4 °F 48.2 °F 56% 30.33 in 6.2 mi SSE 10.4 mph - N/A   Scattered Clouds
5:00 PM 62.6 °F 48.2 °F 59% 30.33 in 6.2 mi South 10.4 mph - N/A   Partly Cloudy
5:30 PM 60.8 °F 48.2 °F 63% 30.36 in 6.2 mi South 8.1 mph - N/A   Partly Cloudy
6:00 PM 61 °F 48 °F 52% 30.37 in 19 mi South 8.1 mph - -   Partly Cloudy
6:00 PM 60.8 °F 48.2 °F 63% 30.36 in - South 8.1 mph - N/A   Clear
6:30 PM 60.8 °F 48.2 °F 63% 30.36 in - South 8.1 mph - N/A   Clear
7:00 PM 60 °F 48 °F 54% 30.39 in - South 10.4 mph - -  
7:00 PM 59.0 °F 48.2 °F 67% 30.39 in - South 10.4 mph - N/A   Clear
7:30 PM 59.0 °F 48.2 °F 67% 30.39 in - South 8.1 mph - N/A   Clear
8:00 PM 59.0 °F 48.2 °F 67% 30.39 in 6.2 mi South 5.8 mph - N/A   Scattered Clouds
8:30 PM 59.0 °F 48.2 °F 67% 30.39 in - South 8.1 mph - N/A   Clear
9:00 PM 57 °F 48 °F 65% 30.41 in 19 mi SSW 9.2 mph - -   Partly Cloudy
9:00 PM 57.2 °F 48.2 °F 72% 30.39 in - SSW 9.2 mph - N/A   Clear
9:30 PM 57.2 °F 46.4 °F 67% 30.39 in - SSW 10.4 mph - N/A   Clear
10:00 PM 56 °F 46 °F 61% 30.41 in - SSW 10.4 mph - -  
10:00 PM 55.4 °F 46.4 °F 72% 30.39 in - SSW 10.4 mph - N/A   Clear
10:30 PM 53.6 °F 46.4 °F 77% 30.39 in - SSW 9.2 mph - N/A   Clear
11:00 PM 55.4 °F 46.4 °F 72% 30.39 in - SSW 9.2 mph - N/A   Clear
11:30 PM 51.8 °F 46.4 °F 82% 30.39 in - SSW 8.1 mph - N/A   Clear